TimeCDT,TemperatureF,Dew PointF,Humidity,Sea Level PressureIn,VisibilityMPH,Wind Direction,Wind SpeedMPH,Gust SpeedMPH,PrecipitationIn,Events,Conditions,WindDirDegrees,DateUTC
12:15 AM,55.4,53.6,94,29.96,10.0,WNW,6.9,-,N/A,,Clear,300,2012-10-15 05:15:00
12:35 AM,57.2,53.6,88,29.96,10.0,West,4.6,-,N/A,,Clear,280,2012-10-15 05:35:00
12:55 AM,55.4,51.8,88,29.96,10.0,WNW,3.5,-,N/A,,Clear,290,2012-10-15 05:55:00
1:15 AM,55.4,51.8,88,29.96,10.0,Calm,Calm,-,N/A,,Clear,0,2012-10-15 06:15:00
1:35 AM,55.4,51.8,88,29.97,10.0,Calm,Calm,-,N/A,,Clear,0,2012-10-15 06:35:00
1:55 AM,53.6,50.0,88,29.97,10.0,Calm,Calm,-,N/A,,Clear,0,2012-10-15 06:55:00
2:15 AM,51.8,48.2,88,29.97,2.5,WNW,6.9,-,N/A,,Clear,300,2012-10-15 07:15:00
2:35 AM,50.0,46.4,87,29.97,10.0,West,4.6,-,N/A,,Clear,280,2012-10-15 07:35:00
2:55 AM,51.8,48.2,88,29.97,10.0,West,3.5,-,N/A,,Clear,270,2012-10-15 07:55:00
3:15 AM,51.8,48.2,88,29.96,10.0,Calm,Calm,-,N/A,,Clear,0,2012-10-15 08:15:00
3:35 AM,50.0,46.4,87,29.96,10.0,Calm,Calm,-,N/A,,Clear,0,2012-10-15 08:35:00
3:55 AM,50.0,46.4,87,29.96,0.2,Calm,Calm,-,N/A,Fog,Fog,0,2012-10-15 08:55:00
4:15 AM,50.0,46.4,87,29.96,0.2,Calm,Calm,-,N/A,Fog,Fog,0,2012-10-15 09:15:00
4:35 AM,48.2,44.6,87,29.96,1.0,Calm,Calm,-,N/A,,Mist,0,2012-10-15 09:35:00
5:15 AM,50.0,46.4,87,29.97,5.0,Calm,Calm,-,N/A,,Clear,0,2012-10-15 10:15:00
5:35 AM,46.4,44.6,93,29.99,0.2,Calm,Calm,-,N/A,Fog,Fog,0,2012-10-15 10:35:00
5:55 AM,46.4,44.6,93,29.99,0.5,WSW,4.6,-,N/A,Fog,Fog,250,2012-10-15 10:55:00
6:15 AM,48.2,44.6,87,30.00,10.0,Calm,Calm,-,N/A,,Clear,0,2012-10-15 11:15:00
6:35 AM,44.6,42.8,93,30.00,10.0,Calm,Calm,-,N/A,,Clear,0,2012-10-15 11:35:00
7:35 AM,48.2,46.4,93,30.01,10.0,Calm,Calm,-,N/A,,Clear,0,2012-10-15 12:35:00
7:55 AM,48.2,46.4,93,30.01,10.0,Calm,Calm,-,N/A,,Clear,0,2012-10-15 12:55:00
8:35 AM,53.6,51.8,94,30.02,10.0,WSW,4.6,-,N/A,,Clear,250,2012-10-15 13:35:00
8:55 AM,57.2,53.6,88,30.03,10.0,WSW,5.8,-,N/A,,Clear,250,2012-10-15 13:55:00
9:15 AM,57.2,53.6,88,30.03,10.0,West,3.5,-,N/A,,Clear,270,2012-10-15 14:15:00
9:35 AM,60.8,53.6,77,30.04,10.0,Calm,Calm,-,N/A,,Clear,0,2012-10-15 14:35:00
9:55 AM,62.6,51.8,68,30.04,10.0,WNW,3.5,-,N/A,,Clear,290,2012-10-15 14:55:00
10:15 AM,64.4,48.2,56,30.04,10.0,WSW,3.5,-,N/A,,Clear,250,2012-10-15 15:15:00
10:35 AM,64.4,48.2,56,30.04,10.0,WSW,3.5,-,N/A,,Clear,240,2012-10-15 15:35:00
10:55 AM,66.2,46.4,49,30.04,10.0,West,5.8,-,N/A,,Clear,270,2012-10-15 15:55:00
11:35 AM,68.0,44.6,43,30.03,10.0,WNW,5.8,-,N/A,,Clear,290,2012-10-15 16:35:00
11:55 AM,69.8,44.6,40,30.03,10.0,West,5.8,-,N/A,,Clear,280,2012-10-15 16:55:00
12:15 PM,71.6,44.6,38,30.03,10.0,WNW,5.8,-,N/A,,Clear,290,2012-10-15 17:15:00
12:35 PM,71.6,42.8,35,30.03,10.0,North,3.5,-,N/A,,Clear,360,2012-10-15 17:35:00
1:15 PM,73.4,42.8,33,30.01,10.0,NNW,3.5,-,N/A,,Clear,330,2012-10-15 18:15:00
1:35 PM,73.4,42.8,33,30.00,10.0,Calm,Calm,-,N/A,,Clear,0,2012-10-15 18:35:00
1:55 PM,73.4,42.8,33,29.99,10.0,WNW,6.9,-,N/A,,Clear,300,2012-10-15 18:55:00
2:15 PM,73.4,42.8,33,29.99,10.0,NW,5.8,-,N/A,,Clear,310,2012-10-15 19:15:00
2:35 PM,75.2,42.8,31,29.98,10.0,WNW,6.9,-,N/A,,Clear,300,2012-10-15 19:35:00
2:55 PM,75.2,42.8,31,29.98,10.0,NNW,4.6,-,N/A,,Clear,330,2012-10-15 19:55:00
3:15 PM,75.2,42.8,31,29.98,10.0,WNW,5.8,-,N/A,,Clear,300,2012-10-15 20:15:00
3:35 PM,75.2,42.8,31,29.98,10.0,WNW,4.6,-,N/A,,Clear,290,2012-10-15 20:35:00
3:55 PM,75.2,44.6,34,29.98,10.0,NW,3.5,-,N/A,,Clear,320,2012-10-15 20:55:00
4:15 PM,75.2,42.8,31,29.97,10.0,West,4.6,-,N/A,,Clear,270,2012-10-15 21:15:00
4:35 PM,73.4,42.8,33,29.97,10.0,West,4.6,-,N/A,,Clear,270,2012-10-15 21:35:00
4:55 PM,73.4,42.8,33,29.96,10.0,Calm,Calm,-,N/A,,Clear,0,2012-10-15 21:55:00
5:15 PM,73.4,44.6,36,29.96,10.0,Calm,Calm,-,N/A,,Clear,0,2012-10-15 22:15:00
5:35 PM,73.4,44.6,36,29.95,10.0,Calm,Calm,-,N/A,,Clear,0,2012-10-15 22:35:00
6:15 PM,66.2,48.2,52,29.95,10.0,Calm,Calm,-,N/A,,Clear,0,2012-10-15 23:15:00
6:35 PM,62.6,48.2,59,29.95,10.0,Calm,Calm,-,N/A,,Clear,0,2012-10-15 23:35:00
6:55 PM,59.0,48.2,67,29.96,10.0,Calm,Calm,-,N/A,,Clear,0,2012-10-15 23:55:00
7:15 PM,60.8,50.0,68,29.96,10.0,Calm,Calm,-,N/A,,Clear,0,2012-10-16 00:15:00
7:35 PM,57.2,48.2,72,29.96,10.0,Calm,Calm,-,N/A,,Clear,0,2012-10-16 00:35:00
7:55 PM,57.2,50.0,77,29.97,10.0,Calm,Calm,-,N/A,,Clear,0,2012-10-16 00:55:00
8:15 PM,53.6,48.2,82,29.97,10.0,Calm,Calm,-,N/A,,Clear,0,2012-10-16 01:15:00
8:35 PM,53.6,48.2,82,29.96,10.0,Calm,Calm,-,N/A,,Clear,0,2012-10-16 01:35:00
8:55 PM,53.6,48.2,82,29.97,10.0,Calm,Calm,-,N/A,,Clear,0,2012-10-16 01:55:00
9:15 PM,55.4,50.0,82,29.97,10.0,Calm,Calm,-,N/A,,Clear,0,2012-10-16 02:15:00
9:35 PM,53.6,50.0,88,29.97,10.0,Calm,Calm,-,N/A,,Clear,0,2012-10-16 02:35:00
9:55 PM,51.8,48.2,88,29.98,10.0,Calm,Calm,-,N/A,,Clear,0,2012-10-16 02:55:00
10:15 PM,51.8,46.4,82,29.98,10.0,Calm,Calm,-,N/A,,Clear,0,2012-10-16 03:15:00
10:35 PM,51.8,48.2,88,29.98,10.0,Calm,Calm,-,N/A,,Clear,0,2012-10-16 03:35:00
10:55 PM,51.8,48.2,88,29.98,10.0,Calm,Calm,-,N/A,,Clear,0,2012-10-16 03:55:00
11:15 PM,51.8,48.2,88,29.97,7.0,Calm,Calm,-,N/A,,Clear,0,2012-10-16 04:15:00
11:35 PM,51.8,48.2,88,29.98,7.0,Calm,Calm,-,N/A,,Clear,0,2012-10-16 04:35:00
11:55 PM,51.8,48.2,88,29.98,7.0,Calm,Calm,-,N/A,,Clear,0,2012-10-16 04:55:00